Location: Unnamed
(48.6007°N, 2.4808°E)
Time: 15:13:49
(UTC+02:00)

DX 1 - Pass Details

Date: 04 April 2023
Orbit: 615 x 625 km, 98.4° (Epoch: 29 May)

Event Time Altitude Azimuth Distance (km) Brightness Sun altitude
Rises 00:03:44 0° 17° (NNE) 2,899 ? -30.8°
Reaches altitude 10° 00:05:57 10° 20° (NNE) 1,988 ? -31.0°
Enters shadow 00:07:08 18° 24° (NNE) 1,520 ? -31.1°
